カタログに戻る

THORAD AGENA D DEB

運用中SSO
NORAD 4640·DEBRIS·🇺🇸 United States

打ち上げ Apr 8, 1970 から Vandenberg Space Force Base

Loading…

次のパス (今後24時間)

TLE

最新Source: Space-Track

元期: Sep 14, 2026, 13:58 UTC

1 04640U 70025Y   26257.58195899  .00000188  00000-0  41247-3 0  9992
2 04640 100.0464  17.1878 0121387  97.4480 329.0696 13.39254732744051

AllMySatでTHORAD AGENA D DEBをリアルタイム追跡

Download on the App Store